Location: Chuathbaluk
(61.5726°N, 159.2454°W)
Time: 16:51:38
(UTC+00:00)

NOAA 15 - Pass Details

Date: 23 January 2021
Orbit: 798 x 812 km, 98.7° (Epoch: 05 March)

Event Time Altitude Azimuth Distance (km) Brightness Sun altitude
Rises 03:12:07 0° 118° (ESE) 3,313 7.5 -6.2°
Reaches altitude 10° 03:14:40 10° 109° (ESE) 2,388 6.7 -6.5°
Maximum altitude 03:19:13 31° 49° (NE) 1,405 5.4 -7.0°
Drops below altitude 10° 03:23:48 10° 350° (N) 2,406 6.9 -7.4°
Sets 03:26:22 0° 340° (NNW) 3,343 7.7 -7.7°
